Weerstation Grootegast  Weerstation Grootegast


15 daagse weersverwachting Stoke-on-Trent (GB)

  • Overzicht
  • Per uur
  • 15 dagen
  • Extra
  • Vergelijk
  • Kaarten
  • Dagkaart
  • Meer »
  • Info
  • Statistieken
  • Directe link
    Temp 6h Neerslag Wind  
 04:44     21:37    Daglengte: 16:53 Vandaag
01:00
13°
 
6
07:00
12°
1.2 mm
5
13:00
15°
4.4 mm
6
19:00
16°
3.5 mm
5
 04:44     21:37    Daglengte: 16:53 Morgen
01:00
12°
 
3
07:00
12°
 
2
13:00
16°
 
3
19:00
17°
 
2
 04:44     21:38    Daglengte: 16:54 Woensdag 19 Jun
01:00
12°
6.5 mm
1
07:00
12°
3.1 mm
2
13:00
14°
13.6 mm
4
19:00
15°
 
3
Locatie info
Region: England
Latitude: 53.0297°N
Longitude: -2.1751°E
114 masl
Postcode: ST1 5
Temp/Neerslag /Baro Onweer/Dauwpunt
    Temp Baro 1h Neerslag Dauwpunt Wind UV Bewolking  
 04:44     21:37    Daglengte: 16:53 Vandaag
01:00
13°
1013.6 hPa
79%
11.0°
6
Windvlaag: 5.8 m/s
76%
02:00
13°
1013.5 hPa
71%
11.0°
6
Windvlaag: 6 m/s
84%
03:00
12°
1013.4 hPa
67%
10.9°
6
Windvlaag: 6 m/s
77%
04:00
12°
1013.4 hPa
80%
10.8°
6
Windvlaag: 5.8 m/s
88%
05:00
12°
1013.5 hPa
82%
10.8°
6
Windvlaag: 5.5 m/s
78%
06:00
12°
1013.8 hPa 0.7 mm
77%
10.9°
6
Windvlaag: 5.3 m/s
80%
07:00
12°
1014.0 hPa 0.5 mm
80%
11.0°
5
Windvlaag: 4.8 m/s
86%
08:00
13°
1014.2 hPa 0.6 mm
79%
11.2°
5
Windvlaag: 4.3 m/s
86%
09:00
13°
1014.3 hPa 0.9 mm
82%
11.4°
5
Windvlaag: 4.3 m/s
86%
10:00
14°
1014.3 hPa 0.6 mm
82%
11.5°
5
Windvlaag: 4.8 m/s
87%
11:00
14°
1014.4 hPa 0.7 mm
81%
11.7°
6
Windvlaag: 4.9 m/s
87%
12:00
14°
1014.6 hPa 0.7 mm
82%
11.7°
6
Windvlaag: 4.9 m/s
90%
13:00
15°
1014.5 hPa 0.9 mm
82%
12.0°
6
Windvlaag: 4.9 m/s
82%
14:00
16°
1014.4 hPa 0.9 mm
82%
12.3°
6
Windvlaag: 4.8 m/s
75%
15:00
16°
1014.3 hPa 0.8 mm
82%
12.8°
6
Windvlaag: 4.7 m/s
78%
16:00
16°
1014.1 hPa 1.0 mm
82%
12.8°
5
Windvlaag: 4.4 m/s
60%
17:00
16°
1013.9 hPa 0.9 mm
79%
12.7°
5
Windvlaag: 3 m/s
65%
18:00
16°
1013.9 hPa
69%
11.9°
5
Windvlaag: 1.4 m/s
55%
19:00
16°
1013.9 hPa
15%
11.8°
5
Windvlaag: 0.5 m/s
48%
20:00
16°
1013.9 hPa
14%
12.0°
4
Windvlaag: 1 m/s
41%
21:00
15°
1014.0 hPa
14%
12.0°
3
Windvlaag: 2.1 m/s
31%
22:00
13°
1014.4 hPa
19%
11.6°
3
Windvlaag: 2.5 m/s
25%
23:00
13°
1014.7 hPa
15%
11.4°
3
Windvlaag: 2.5 m/s
69%
 04:44     21:37    Daglengte: 16:53 Morgen
00:00
13°
1014.8 hPa
17%
11.1°
3
Windvlaag: 2.2 m/s
69%
01:00
12°
1014.9 hPa
16%
10.8°
3
Windvlaag: 2.2 m/s
54%
02:00
12°
1014.8 hPa
14%
10.4°
3
Windvlaag: 2.3 m/s
47%
03:00
11°
1014.6 hPa
60%
10.5°
2
Windvlaag: 2.2 m/s
64%
04:00
11°
1014.4 hPa
25%
10.2°
2
Windvlaag: 2.1 m/s
63%
05:00
11°
1014.3 hPa
17%
10.0°
2
Windvlaag: 1.9 m/s
69%
06:00
11°
1014.3 hPa
14%
10.2°
2
Windvlaag: 1.5 m/s
78%
07:00
12°
1014.4 hPa
14%
10.4°
2
Windvlaag: 1.5 m/s
58%
08:00
13°
1014.3 hPa
67%
10.6°
3
Windvlaag: 1.8 m/s
51%
09:00
14°
1014.4 hPa
78%
10.5°
3
Windvlaag: 2.2 m/s
66%
10:00
15°
1014.4 hPa
71%
10.6°
3
Windvlaag: 2.2 m/s
69%
11:00
15°
1014.2 hPa
26%
11.5°
3
Windvlaag: 2.1 m/s
65%
12:00
16°
1013.9 hPa
24%
11.7°
3
Windvlaag: 1.8 m/s
73%
13:00
16°
1013.4 hPa
15%
11.5°
3
Windvlaag: 1.5 m/s
67%
14:00
17°
1013.1 hPa
14%
11.7°
3
Windvlaag: 0.9 m/s
69%
15:00
17°
1012.8 hPa
14%
11.6°
3
Windvlaag: 1 m/s
69%
16:00
17°
1012.3 hPa
14%
11.5°
3
Windvlaag: 1.3 m/s
69%
17:00
18°
1011.9 hPa
56%
10.9°
3
Windvlaag: 1.7 m/s
89%
18:00
17°
1011.7 hPa
80%
10.8°
3
Windvlaag: 1.8 m/s
84%
19:00
17°
1011.6 hPa
82%
11.0°
2
Windvlaag: 1.4 m/s
59%
20:00
16°
1011.5 hPa 1.3 mm
82%
11.8°
2
Windvlaag: -0.3 m/s
77%
21:00
15°
1011.4 hPa 1.2 mm
82%
12.1°
2
Windvlaag: -0.8 m/s
82%
22:00
14°
1011.2 hPa 1.2 mm
100%
12.0°
2
Windvlaag: -1 m/s
93%
23:00
13°
1010.9 hPa 1.2 mm
100%
12.0°
2
Windvlaag: -0.9 m/s
95%
 04:44     21:38    Daglengte: 16:54 Woensdag 19 Jun
00:00
13°
1010.6 hPa
100%
11.6°
2
Windvlaag: -0.8 m/s
90%
01:00
12°
1010.0 hPa 1.6 mm
100%
11.3°
1
Windvlaag: -0.8 m/s
88%
02:00
12°
1009.4 hPa
100%
11.3°
1
Windvlaag: -0.5 m/s
83%
03:00
12°
1009.0 hPa
100%
11.3°
1
Windvlaag: -0.2 m/s
100%
04:00
12°
1008.5 hPa 1.4 mm
100%
11.3°
1
Windvlaag: -0 m/s
98%
05:00
12°
1008.0 hPa 1.7 mm
100%
11.0°
2
Windvlaag: -0.1 m/s
97%
06:00
12°
1007.8 hPa
100%
11.5°
2
Windvlaag: 0 m/s
97%
07:00
12°
1007.8 hPa
100%
11.5°
2
Windvlaag: 0.2 m/s
99%
08:00
13°
1006.7 hPa 2.1 mm
100%
11.6°
3
Windvlaag: 1.2 m/s
100%
09:00
13°
1006.5 hPa 1.7 mm
100%
11.4°
3
Windvlaag: 1.2 m/s
100%
10:00
14°
1006.5 hPa 2.3 mm
100%
11.6°
3
Windvlaag: 1.1 m/s
100%
11:00
13°
1006.4 hPa 2.8 mm
100%
11.7°
4
Windvlaag: 1.4 m/s
100%
12:00
14°
1006.5 hPa 4.7 mm
100%
11.2°
5
Windvlaag: 1.4 m/s
100%
13:00
14°
1006.7 hPa
100%
10.3°
4
Windvlaag: 1.4 m/s
98%
14:00
15°
1006.8 hPa
100%
10.0°
4
Windvlaag: 1.3 m/s
83%
15:00
16°
1006.9 hPa
92%
9.7°
4
Windvlaag: 1.2 m/s
75%
16:00
16°
1007.0 hPa
28%
10.0°
4
Windvlaag: 1.2 m/s
74%
17:00
16°
1007.0 hPa
21%
10.4°
4
Windvlaag: 1.1 m/s
76%
18:00
16°
1007.1 hPa
21%
10.5°
4
Windvlaag: 1.1 m/s
37%
19:00
15°
1007.3 hPa
21%
10.1°
3
Windvlaag: 1.1 m/s
33%
20:00
15°
1007.6 hPa
21%
9.9°
3
Windvlaag: 5.8 m/s
41%
21:00
14°
1008.1 hPa
24%
9.7°
2
Windvlaag: 6.3 m/s
19%
22:00
13°
1008.5 hPa
28%
9.4°
3
Windvlaag: 7.6 m/s
24%
23:00
12°
1008.8 hPa
22%
9.0°
3
Windvlaag: 10 m/s
11%
 04:44     21:38    Daglengte: 16:54 Donderdag 20 Jun
00:00
11°
1009.0 hPa
21%
8.7°
2
Windvlaag: 9.8 m/s
7%
Temp/Neerslag /Baro Onweer/Dauwpunt
    Temp Baro Neerslag Dauwpunt Wind Bewolking  
 04:44     21:37    Daglengte: 16:53 Vandaag
01:00
13°
1013.6 hPa   11.0°
6
76%
04:00
12°
1013.4 hPa   10.8°
6
88%
07:00
12°
1014.0 hPa 1.2 mm 11.0°
5
86%
10:00
14°
1014.3 hPa 2.1 mm 11.5°
5
87%
13:00
15°
1014.5 hPa 2.3 mm 12.0°
6
82%
16:00
16°
1014.1 hPa 2.6 mm 12.8°
5
60%
19:00
16°
1013.9 hPa 0.9 mm 11.8°
5
48%
22:00
13°
1014.4 hPa   11.6°
3
25%
 04:44     21:37    Daglengte: 16:53 Morgen
01:00
12°
1014.9 hPa   10.8°
3
54%
04:00
11°
1014.4 hPa   10.2°
2
63%
07:00
12°
1014.4 hPa   10.4°
2
58%
10:00
15°
1014.4 hPa   10.6°
3
69%
13:00
16°
1013.4 hPa   11.5°
3
67%
16:00
17°
1012.3 hPa   11.5°
3
69%
19:00
17°
1011.6 hPa   11.0°
2
59%
22:00
14°
1011.2 hPa 3.8 mm 12.0°
2
93%
 04:44     21:38    Daglengte: 16:54 Woensdag 19 Jun
01:00
12°
1010.0 hPa 2.8 mm 11.3°
1
88%
04:00
12°
1008.5 hPa 1.4 mm 11.3°
1
98%
07:00
12°
1007.8 hPa 1.7 mm 11.5°
2
99%
10:00
14°
1006.5 hPa 6.1 mm 11.6°
3
100%
13:00
14°
1006.7 hPa 7.5 mm 10.3°
4
98%
16:00
16°
1007.0 hPa   10.0°
4
74%
19:00
15°
1007.3 hPa   10.1°
3
33%
22:00
13°
1008.5 hPa   9.4°
3
24%
 04:44     21:38    Daglengte: 16:54 Donderdag 20 Jun
01:00
10°
Voelt als: 8.6°
1009.1 hPa   8.3°
2
4%
04:00
10°
1010.1 hPa 14.2 mm 8.7°
3
56%
07:00
11°
1010.4 hPa 14.2 mm 9.2°
3
81%
10:00
13°
1011.0 hPa 14.4 mm 9.7°
4
83%
13:00
15°
1011.6 hPa 15.6 mm 9.8°
5
86%
16:00
14°
1012.1 hPa 16.3 mm 8.7°
4
63%
19:00
14°
1012.5 hPa 17.4 mm 7.7°
4
41%
22:00
11°
1013.8 hPa 17.6 mm 7.4°
3
28%
 04:44     21:38    Daglengte: 16:54 Vrijdag 21 Jun
01:00
Voelt als: 7.1°
1015.1 hPa 17.6 mm 6.9°
2
15%
04:00
Voelt als: 7.9°
1015.8 hPa 17.6 mm 7.4°
2
24%
07:00
10°
Voelt als: 9.0°
1016.5 hPa 17.6 mm 8.1°
2
34%
10:00
12°
1017.1 hPa 17.7 mm 7.7°
3
53%
13:00
15°
1017.7 hPa 18.5 mm 6.4°
4
72%
16:00
14°
1018.3 hPa 19.3 mm 7.2°
4
63%
19:00
14°
1019.0 hPa 19.5 mm 7.7°
4
54%
22:00
11°
1020.1 hPa 19.5 mm 6.4°
2
30%
 04:44     21:38    Daglengte: 16:54 Zaterdag 22 Jun
01:00
Voelt als: 7.3°
1021.1 hPa 19.5 mm 5.1°
1
6%
04:00
Voelt als: 8.6°
1021.2 hPa 19.5 mm 6.1°
1
38%
07:00
10°
1021.4 hPa 19.5 mm 7.4°
1
69%
10:00
13°
1021.2 hPa 19.5 mm 7.8°
2
80%
13:00
16°
1020.9 hPa 19.5 mm 7.4°
4
92%
16:00
16°
1020.1 hPa 19.7 mm 8.3°
3
92%
19:00
16°
1019.5 hPa 20.7 mm 9.2°
3
92%
22:00
14°
1019.8 hPa 20.8 mm 9.7°
4
92%
 04:45     21:39    Daglengte: 16:54 Zondag 23 Jun
01:00
12°
1020.0 hPa 20.8 mm 10.0°
5
92%
04:00
12°
1019.6 hPa 20.9 mm 9.8°
5
92%
07:00
12°
1019.2 hPa 20.9 mm 9.6°
5
92%
10:00
14°
1018.5 hPa 20.9 mm 10.5°
5
92%
13:00
16°
1017.8 hPa 21.0 mm 11.4°
6
92%
16:00
16°
1017.4 hPa 21.6 mm 12.1°
6
91%
19:00
15°
1017.1 hPa 21.6 mm 12.5°
5
91%
22:00
14°
1017.2 hPa   12.0°
5
72%
 04:45     21:39    Daglengte: 16:54 Maandag 24 Jun
01:00
13°
1017.3 hPa 43.2 mm 11.7°
5
53%
07:00
13°
1017.2 hPa 43.2 mm 11.3°
6
91%
13:00
17°
1017.7 hPa 43.2 mm 11.9°
5
67%
19:00
15°
1018.4 hPa 43.3 mm 10.6°
6
72%
 04:45     21:39    Daglengte: 16:54 Dinsdag 25 Jun
01:00
11°
1020.5 hPa 44.9 mm 8.0°
4
82%
07:00
11°
1021.8 hPa 45.1 mm 7.9°
3
53%
13:00
15°
1023.1 hPa 46.7 mm 7.0°
5
92%
19:00
14°
1024.4 hPa 48.9 mm 7.1°
5
43%
 04:46     21:39    Daglengte: 16:53 Woensdag 26 Jun
01:00
Voelt als: 6.7°
1026.5 hPa 49.1 mm 5.7°
4
13%
07:00
10°
Voelt als: 7.6°
1026.6 hPa 49.1 mm 6.9°
4
78%
13:00
16°
1026.1 hPa 49.2 mm 6.9°
5
90%
19:00
17°
1021.1 hPa 1.3 mm 11.9°
1
47%
 04:46     21:38    Daglengte: 16:52 Donderdag 27 Jun
01:00
10°
1020.9 hPa 0.5 mm 8.9°
1
43%
07:00
12°
1018.8 hPa 0.8 mm 10.1°
1
48%
13:00
18°
1017.4 hPa 0.6 mm 12.3°
2
50%
19:00
17°
1016.0 hPa 0.5 mm 12.2°
2
43%
 04:47     21:38    Daglengte: 16:51 Vrijdag 28 Jun
01:00
11°
1016.2 hPa 0.9 mm 9.6°
1
36%
07:00
12°
1015.2 hPa 0.8 mm 10.3°
2
48%
13:00
17°
1015.0 hPa 0.7 mm 11.8°
3
58%
19:00
17°
1014.7 hPa 1.2 mm 12.0°
3
60%
 04:48     21:38    Daglengte: 16:50 Zaterdag 29 Jun
01:00
10°
1015.9 hPa 0.3 mm 8.8°
2
36%
07:00
11°
1015.5 hPa 0.1 mm 9.5°
2
30%
13:00
17°
1014.8 hPa 1.2 mm 11.3°
3
44%
19:00
17°
1014.1 hPa 0.8 mm 11.4°
3
55%
 04:48     21:38    Daglengte: 16:50 Zondag 30 Jun
01:00
10°
1015.0 hPa 0.2 mm 8.4°
2
32%
07:00
12°
1014.7 hPa 0.1 mm 9.6°
2
39%
13:00
17°
1014.4 hPa 0.6 mm 11.4°
3
57%
19:00
17°
1014.1 hPa 0.8 mm 11.8°
3
57%
 04:49     21:37    Daglengte: 16:48 Maandag 01 Jul
01:00
10°
1015.1 hPa 0.3 mm 8.9°
2
31%
07:00
11°
1014.9 hPa   9.9°
2
35%
13:00
17°
1014.5 hPa 0.5 mm 11.2°
3
51%
19:00
17°
1014.1 hPa 0.9 mm 11.3°
3
57%
  CAPE Lifted Index Hail Supercell Tornado SRH 3km CL BTM PRES CL TOP PRES Swiss DWD icon SMHI TS
 04:44     21:37    Daglengte: 16:53 Vandaag
01:00 3 J/kg 3.6 K 0 % 0 % 0 % 0 m²/s² 0 0 4.05 3
02:00 0 J/kg 4.6 K 0 % 0 % 0 % 0 m²/s² 0 0 5.11 80
03:00 0 J/kg 3.7 K 0 % 0 % 0 % 0 m²/s² 0 0 4.33 3
04:00 0 J/kg 2.6 K 0 % 0 % 0 % 0 m²/s² 0 0 3.41 3
05:00 0 J/kg 2.9 K 0 % 0 % 0 % 0 m²/s² 0 0 3.8 3
06:00 0 J/kg 2.9 K 0 % 0 % 0 % 0 m²/s² 0 0 4.01 80
07:00 0 J/kg 2.8 K 0 % 0 % 0 % 0 m²/s² 0 0 3.91 61
08:00 3 J/kg 2.8 K 0 % 0 % 0 % 0 m²/s² 0 0 4.12 61
09:00 4 J/kg 2.9 K 0 % 0 % 0 % 0 m²/s² 0 0 4.49 3
10:00 69 J/kg 2.3 K 0 % 0 % 0 % 0 m²/s² 0 0 4.07 61
11:00 80 J/kg 2.4 K 0 % 0 % 0 % 0 m²/s² 0 0 4.41 61
12:00 100 J/kg 1.9 K 0 % 0 % 0 % 0 m²/s² 0 0 3.97 61
13:00 149 J/kg 1.1 K 0 % 0 % 0 % 0 m²/s² 0 0 2.99 61
14:00 172 J/kg 0.8 K 0 % 0 % 0 % 0 m²/s² 0 0 2.27 61
15:00 149 J/kg 1.0 K 0 % 0 % 0 % 0 m²/s² 0 0 2.59 61
16:00 185 J/kg 0.5 K 0 % 0 % 0 % 0 m²/s² 0 0 2.21 80
17:00 311 J/kg -0.4 K 0 % 0 % 0 % 0 m²/s² 0 0 1.55 80
18:00 303 J/kg -0.3 K 0 % 0 % 0 % 0 m²/s² 0 0 1.53 3
19:00 258 J/kg -0.3 K 0 % 0 % 0 % 0 m²/s² 0 0 1.71 3
20:00 231 J/kg -0.1 K 0 % 0 % 0 % 0 m²/s² 0 0 1.85 1
21:00 134 J/kg 0.8 K 0 % 0 % 0 % 0 m²/s² 0 0 2.81 1
22:00 41 J/kg 2.1 K 0 % 0 % 0 % 0 m²/s² 0 0 4.38 3
23:00 1 J/kg 2.8 K 0 % 0 % 0 % 0 m²/s² 0 0 5.23 3
 04:44     21:37    Daglengte: 16:53 Morgen
00:00 0 J/kg 3.5 K 0 % 0 % 0 % 0 m²/s² 0 0 5.93 3
01:00 0 J/kg 4.0 K 0 % 0 % 0 % 0 m²/s² 0 0 6.64 3
02:00 0 J/kg 5.6 K 0 % 0 % 0 % 0 m²/s² 0 0 8.09 3
03:00 0 J/kg 5.2 K 0 % 0 % 0 % 0 m²/s² 0 0 6.91 3
04:00 0 J/kg 4.6 K 0 % 0 % 0 % 0 m²/s² 0 0 5.8 3
05:00 0 J/kg 4.6 K 0 % 0 % 0 % 0 m²/s² 0 0 5.65 3
06:00 0 J/kg 4.5 K 0 % 0 % 0 % 0 m²/s² 0 0 5.22 3
07:00 0 J/kg 5.0 K 0 % 0 % 0 % 0 m²/s² 0 0 6.38 3
08:00 0 J/kg 5.1 K 0 % 0 % 0 % 0 m²/s² 0 0 6.99 3
09:00 0 J/kg 5.3 K 0 % 0 % 0 % 0 m²/s² 0 0 7.07 3
10:00 11 J/kg 4.8 K 0 % 0 % 0 % 0 m²/s² 0 0 6.57 3
11:00 38 J/kg 4.1 K 0 % 0 % 0 % 0 m²/s² 0 0 5.81 3
12:00 45 J/kg 3.4 K 0 % 0 % 0 % 0 m²/s² 0 0 5.23 3
13:00 42 J/kg 3.0 K 0 % 0 % 0 % 0 m²/s² 0 0 4.23 3
14:00 24 J/kg 3.5 K 0 % 0 % 0 % 0 m²/s² 0 0 3.89 3
15:00 23 J/kg 3.7 K 0 % 0 % 0 % 0 m²/s² 0 0 3.88 3
16:00 35 J/kg 3.2 K 0 % 0 % 0 % 0 m²/s² 0 0 3.29 3
17:00 31 J/kg 3.6 K 0 % 0 % 0 % 0 m²/s² 0 0 3.72 3
18:00 2 J/kg 3.8 K 0 % 0 % 0 % 0 m²/s² 0 0 3.92 3
19:00 30 J/kg 3.4 K 0 % 0 % 0 % 0 m²/s² 0 0 3.61 61
20:00 20 J/kg 3.3 K 0 % 0 % 0 % 0 m²/s² 0 0 3.69 61
21:00 17 J/kg 3.2 K 0 % 0 % 0 % 0 m²/s² 0 0 3.89 61
22:00 8 J/kg 3.2 K 0 % 0 % 0 % 0 m²/s² 0 0 3.98 61
23:00 0 J/kg 3.2 K 0 % 0 % 0 % 0 m²/s² 0 0 4.43 61
 04:44     21:38    Daglengte: 16:54 Woensdag 19 Jun
00:00 0 J/kg 3.0 K 0 % 0 % 0 % 0 m²/s² 0 0 3.99 61
01:00 3 J/kg 3.4 K 0 % 0 % 0 % 0 m²/s² 0 0 4.33 61
02:00 1 J/kg 3.3 K 0 % 0 % 0 % 0 m²/s² 0 0 4.17 63
03:00 1 J/kg 3.7 K 0 % 0 % 0 % 0 m²/s² 0 0 4.39 61
04:00 1 J/kg 3.4 K 0 % 0 % 0 % 0 m²/s² 0 0 3.7 61
05:00 0 J/kg 3.1 K 0 % 0 % 0 % 0 m²/s² 0 0 3.28 61
06:00 1 J/kg 3.1 K 0 % 0 % 0 % 0 m²/s² 0 0 3.19 61
07:00 0 J/kg 3.0 K 0 % 0 % 0 % 0 m²/s² 0 0 3.09 61
08:00 0 J/kg 3.0 K 0 % 0 % 0 % 0 m²/s² 0 0 3.09 61
09:00 0 J/kg 3.7 K 0 % 0 % 0 % 0 m²/s² 0 0 3.82 61
10:00 0 J/kg 4.1 K 0 % 0 % 0 % 0 m²/s² 0 0 4.22 61
11:00 0 J/kg 4.0 K 0 % 0 % 0 % 0 m²/s² 0 0 4.12 55
12:00 0 J/kg 4.6 K 0 % 0 % 0 % 0 m²/s² 0 0 4.63 61
13:00 1 J/kg 4.9 K 0 % 0 % 0 % 0 m²/s² 0 0 5.02 3
14:00 0 J/kg 5.7 K 0 % 0 % 0 % 0 m²/s² 0 0 5.91 61
15:00 1 J/kg 6.3 K 0 % 0 % 0 % 0 m²/s² 0 0 6.54 3
16:00 42 J/kg 4.4 K 0 % 0 % 0 % 0 m²/s² 0 0 4.64 2
17:00 81 J/kg 2.5 K 0 % 0 % 0 % 0 m²/s² 0 0 2.83 2
18:00 16 J/kg 1.7 K 0 % 0 % 0 % 0 m²/s² 0 0 3.23 1
19:00 4 J/kg 1.3 K 0 % 0 % 0 % 0 m²/s² 0 0 3.91 2
20:00 7 J/kg 1.6 K 0 % 0 % 0 % 0 m²/s² 0 0 5.5 3
21:00 29 J/kg 3.6 K 0 % 0 % 0 % 0 m²/s² 0 0 8.79 1
22:00 13 J/kg 5.1 K 0 % 0 % 0 % 0 m²/s² 0 0 10.71 1
23:00 0 J/kg 6.2 K 0 % 0 % 0 % 0 m²/s² 0 0 10.01 1
 04:44     21:38    Daglengte: 16:54 Donderdag 20 Jun
00:00 0 J/kg 6.1 K 0 % 0 % 0 % 0 m²/s² 0 0 9.28 0
Temp Baro Wind Neerslag
  EWN Forecast EWN WRFDA DWD ICON FMI HIRLAM MET Norway GFS
 04:44     21:37    Daglengte: 16:53 Vandaag
01:00 12.8° 1013.6 hPa 6.0 m/s 0.0 mm 12.2° 1013.3 hPa 5.5 m/s 3.5 mm 12.8° 1014.0 hPa 5.9 m/s -1.7 mm 14.8° 1012.4 hPa 6.5 m/s 0.0 mm 12.6° 1013.7 hPa 5.8 m/s 0.0 mm 11.9° 1014.2 hPa 6.6 m/s
04:00 12.3° 1013.4 hPa 6.1 m/s 0.0 mm 10.8° 1013.2 hPa 6.1 m/s 5.2 mm 12.2° 1013.3 hPa 5.9 m/s 0.1 mm 14.0° 1012.4 hPa 6.6 m/s 0.0 mm 12.3° 1013.6 hPa 5.8 m/s 0.9 mm 10.4° 1013.8 hPa 6.5 m/s
07:00 12.5° 1014.0 hPa 4.9 m/s 1.2 mm 12.0° 1013.0 hPa 6.4 m/s 5.2 mm 12.2° 1014.2 hPa 4.7 m/s 0.7 mm 14.1° 1013.4 hPa 3.6 m/s 0.0 mm 12.6° 1014.1 hPa 5.3 m/s 0.9 mm 11.5° 1014.1 hPa 6.7 m/s
10:00 13.9° 1014.3 hPa 5.5 m/s 2.1 mm 15.3° 1013.7 hPa 7.3 m/s 5.3 mm 12.7° 1015.2 hPa 4.7 m/s 0.6 mm 14.5° 1013.8 hPa 4.5 m/s 0.0 mm 14.1° 1014.2 hPa 6.1 m/s 1.0 mm 13.8° 1014.7 hPa 6.2 m/s
13:00 15.0° 1014.5 hPa 5.6 m/s 2.3 mm 16.7° 1013.1 hPa 7.5 m/s 6.0 mm 13.8° 1014.9 hPa 5.2 m/s 3.1 mm 15.8° 1014.1 hPa 4.9 m/s 0.0 mm 14.9° 1014.6 hPa 5.6 m/s 1.6 mm 14.5° 1014.3 hPa 5.7 m/s
16:00 16.3° 1014.1 hPa 5.3 m/s 2.6 mm 16.3° 1013.2 hPa 4.5 m/s 9.4 mm 14.3° 1014.8 hPa 5.2 m/s 2.0 mm 17.4° 1013.6 hPa 5.7 m/s 0.0 mm 16.4° 1014.1 hPa 5.4 m/s 0.7 mm 14.3° 1013.8 hPa 5.4 m/s
19:00 15.9° 1013.9 hPa 4.6 m/s 0.9 mm 17.2° 1012.8 hPa 5.4 m/s 12.2 mm 14.6° 1014.4 hPa 4.9 m/s 0.3 mm 17.1° 1013.5 hPa 4.4 m/s 0.0 mm 16.0° 1013.8 hPa 4.8 m/s 0.5 mm 15.4° 1013.5 hPa 6.1 m/s
22:00 13.3° 1014.4 hPa 3.0 m/s 0.0 mm 12.8° 1013.5 hPa 2.5 m/s 12.8 mm 12.9° 1015.0 hPa 2.6 m/s 0.0 mm 15.5° 1014.2 hPa 5.0 m/s 0.0 mm 13.0° 1014.4 hPa 2.7 m/s 0.0 mm 11.5° 1014.7 hPa 3.0 m/s
 04:44     21:37    Daglengte: 16:53 Morgen
01:00 12.3° 1014.9 hPa 2.9 m/s 0.0 mm 11.1° 1014.2 hPa 2.7 m/s 12.9 mm 11.9° 1015.1 hPa 1.7 m/s 0.0 mm 14.0° 1014.8 hPa 3.2 m/s 0.0 mm 12.2° 1014.9 hPa 3.0 m/s 0.0 mm 9.5° 1015.0 hPa 2.7 m/s
04:00 10.9° 1014.4 hPa 2.2 m/s 0.0 mm 9.7° 1013.4 hPa 1.9 m/s 12.9 mm 11.3° 1014.7 hPa 1.5 m/s 0.0 mm 11.0° 1014.7 hPa 2.5 m/s 0.0 mm 10.6° 1014.4 hPa 2.3 m/s 0.0 mm 8.8° 1014.6 hPa 2.3 m/s
07:00 12.0° 1014.4 hPa 2.2 m/s 0.0 mm 12.0° 1013.3 hPa 2.5 m/s 12.9 mm 12.3° 1014.3 hPa 1.8 m/s 0.0 mm 12.1° 1014.8 hPa 2.9 m/s 0.0 mm 12.1° 1014.5 hPa 2.2 m/s 0.0 mm 11.3° 1014.5 hPa 2.8 m/s
10:00 14.5° 1014.4 hPa 3.0 m/s 0.0 mm 15.2° 1013.5 hPa 2.8 m/s 12.9 mm 14.4° 1014.5 hPa 3.1 m/s 0.1 mm 13.6° 1014.7 hPa 3.4 m/s 0.0 mm 15.5° 1013.9 hPa 2.9 m/s 0.0 mm 14.6° 1014.4 hPa 3.4 m/s
13:00 16.2° 1013.4 hPa 3.1 m/s 0.0 mm 17.7° 1012.0 hPa 3.1 m/s 12.9 mm 17.1° 1013.3 hPa 2.8 m/s 0.0 mm 16.0° 1014.3 hPa 3.4 m/s 0.0 mm 16.0° 1013.4 hPa 3.3 m/s 1.2 mm 17.2° 1013.3 hPa 3.6 m/s
16:00 17.3° 1012.3 hPa 2.8 m/s 0.0 mm 16.8° 1011.0 hPa 4.4 m/s 13.0 mm 18.2° 1012.3 hPa 2.5 m/s 0.0 mm 18.5° 1013.5 hPa 4.0 m/s 0.0 mm 17.1° 1012.3 hPa 2.6 m/s 0.3 mm 17.4° 1012.1 hPa 2.9 m/s
19:00 17.0° 1011.6 hPa 2.4 m/s 0.0 mm 16.5° 1010.0 hPa 2.8 m/s 14.0 mm 17.6° 1011.6 hPa 0.7 m/s 0.1 mm 18.1° 1012.9 hPa 3.1 m/s 0.0 mm 17.0° 1011.2 hPa 2.5 m/s 0.0 mm 13.8° 1011.3 hPa 0.3 m/s
22:00 13.9° 1011.2 hPa 1.7 m/s 3.8 mm 14.1° 1009.1 hPa 0.9 m/s 14.0 mm 14.8° 1011.1 hPa 1.0 m/s 1.3 mm 13.8° 1011.3 hPa 1.8 m/s 0.0 mm 12.6° 1011.6 hPa 0.6 m/s
 04:44     21:38    Daglengte: 16:54 Woensdag 19 Jun
01:00 12.3° 1010.0 hPa 1.4 m/s 2.8 mm 12.1° 1007.9 hPa 1.6 m/s 14.0 mm 13.8° 1009.1 hPa 1.6 m/s 2.9 mm 11.6° 1010.2 hPa 1.4 m/s 0.0 mm 12.2° 1010.1 hPa 1.1 m/s
04:00 11.9° 1008.5 hPa 0.8 m/s 1.4 mm 11.8° 1006.3 hPa 0.9 m/s 14.1 mm 13.3° 1007.0 hPa 2.8 m/s 6.1 mm 11.2° 1008.8 hPa 0.4 m/s 0.0 mm 11.4° 1008.4 hPa 1.8 m/s
07:00 12.2° 1007.8 hPa 1.8 m/s 1.7 mm 12.9° 1004.8 hPa 4.1 m/s 15.0 mm 12.7° 1005.7 hPa 2.7 m/s 3.3 mm 12.1° 1008.3 hPa 1.5 m/s 0.0 mm 12.3° 1007.0 hPa 1.6 m/s
10:00 13.5° 1006.5 hPa 3.2 m/s 6.1 mm 11.4° 1005.3 hPa 4.3 m/s 21.3 mm 12.4° 1005.0 hPa 4.3 m/s 4.4 mm 14.8° 1007.8 hPa 2.2 m/s 0.3 mm 13.0° 1006.4 hPa 2.4 m/s
13:00 13.9° 1006.7 hPa 4.3 m/s 7.5 mm 11.5° 1005.4 hPa 5.4 m/s 40.8 mm 12.9° 1005.0 hPa 5.2 m/s 1.1 mm 15.1° 1008.1 hPa 3.4 m/s 0.0 mm 12.3° 1006.1 hPa 4.4 m/s
16:00 16.2° 1007.0 hPa 4.3 m/s 0.0 mm 17.0° 1005.2 hPa 5.6 m/s 46.8 mm 14.8° 1006.1 hPa 5.6 m/s 0.1 mm 16.3° 1008.0 hPa 3.0 m/s 0.0 mm 11.7° 1006.1 hPa 4.1 m/s
19:00 15.5° 1007.3 hPa 3.4 m/s 0.0 mm 15.7° 1006.4 hPa 4.7 m/s 46.8 mm 15.3° 1006.4 hPa 3.8 m/s 0.0 mm 15.5° 1008.1 hPa 2.7 m/s 0.0 mm 12.4° 1007.1 hPa 2.8 m/s
22:00 12.5° 1008.5 hPa 2.5 m/s 0.0 mm 12.1° 1007.5 hPa 3.2 m/s 46.8 mm 12.9° 1008.1 hPa 1.8 m/s 0.0 mm 12.5° 1009.0 hPa 2.5 m/s 10.5° 1009.0 hPa 2.7 m/s
 04:44     21:38    Daglengte: 16:54 Donderdag 20 Jun
01:00 9.8° 1009.1 hPa 2.4 m/s 0.0 mm 9.7° 1007.1 hPa 3.7 m/s 46.8 mm 10.8° 1008.8 hPa 1.6 m/s 0.0 mm 9.5° 1009.8 hPa 2.4 m/s 8.4° 1009.0 hPa 3.0 m/s
04:00 10.0° 1010.1 hPa 2.8 m/s 14.2 mm 10.2° 1010.2 hPa 2.9 m/s 7.6° 1009.5 hPa 2.4 m/s 14.2 mm
07:00 10.5° 1010.4 hPa 3.1 m/s 14.2 mm 10.6° 1010.4 hPa 3.1 m/s 9.8° 1010.2 hPa 2.9 m/s 14.2 mm
10:00 12.8° 1011.0 hPa 4.1 m/s 14.4 mm 12.7° 1011.0 hPa 4.0 m/s 13.5° 1010.7 hPa 5.2 m/s 14.4 mm
13:00 14.7° 1011.6 hPa 5.1 m/s 15.6 mm 14.8° 1011.7 hPa 5.0 m/s 13.5° 1010.4 hPa 5.8 m/s 15.6 mm
16:00 14.3° 1012.1 hPa 4.4 m/s 16.3 mm 14.2° 1012.2 hPa 4.3 m/s 15.4° 1010.5 hPa 6.0 m/s 16.3 mm
19:00 13.7° 1012.5 hPa 3.8 m/s 17.4 mm 13.7° 1012.7 hPa 3.6 m/s 13.8° 1010.5 hPa 5.5 m/s 17.4 mm
22:00 11.0° 1013.8 hPa 3.0 m/s 17.6 mm 11.1° 1014.0 hPa 3.0 m/s 9.8° 1011.5 hPa 4.1 m/s 17.6 mm
 04:44     21:38    Daglengte: 16:54 Vrijdag 21 Jun
01:00 8.5° 1015.1 hPa 2.5 m/s 17.6 mm 8.6° 1015.4 hPa 2.3 m/s 7.4° 1012.2 hPa 4.1 m/s 17.6 mm
04:00 8.9° 1015.8 hPa 2.1 m/s 17.6 mm 9.1° 1016.1 hPa 2.0 m/s 6.7° 1012.9 hPa 3.4 m/s 17.6 mm
07:00 9.7° 1016.5 hPa 1.8 m/s 17.6 mm 9.7° 1016.8 hPa 1.7 m/s 9.6° 1013.8 hPa 3.2 m/s 17.6 mm
10:00 12.4° 1017.1 hPa 3.1 m/s 17.7 mm 12.3° 1017.3 hPa 3.0 m/s 13.2° 1014.9 hPa 4.4 m/s 17.7 mm
13:00 15.0° 1017.7 hPa 4.3 m/s 18.5 mm 15.0° 1017.9 hPa 4.3 m/s 15.0° 1015.0 hPa 4.0 m/s 18.5 mm
16:00 14.4° 1018.3 hPa 4.0 m/s 19.3 mm 14.3° 1018.6 hPa 4.0 m/s 15.3° 1015.5 hPa 4.4 m/s 19.3 mm
19:00 13.7° 1019.0 hPa 3.6 m/s 19.5 mm 13.7° 1019.3 hPa 3.6 m/s 13.9° 1016.3 hPa 3.8 m/s 19.5 mm
22:00 10.6° 1020.1 hPa 2.5 m/s 19.5 mm 10.8° 1020.3 hPa 2.5 m/s 8.4° 1018.2 hPa 1.9 m/s 19.5 mm
 04:44     21:38    Daglengte: 16:54 Zaterdag 22 Jun
01:00 7.8° 1021.1 hPa 1.4 m/s 19.5 mm 7.9° 1021.3 hPa 1.4 m/s 6.6° 1018.9 hPa 1.0 m/s 19.5 mm
04:00 8.9° 1021.2 hPa 1.3 m/s 19.5 mm 9.2° 1021.5 hPa 1.4 m/s 6.1° 1018.9 hPa 1.0 m/s 19.5 mm
07:00 10.3° 1021.4 hPa 1.3 m/s 19.5 mm 10.4° 1021.6 hPa 1.3 m/s 9.7° 1019.4 hPa 0.8 m/s 19.5 mm
10:00 13.4° 1021.2 hPa 2.4 m/s 19.5 mm 13.4° 1021.4 hPa 2.5 m/s 13.8° 1019.0 hPa 2.1 m/s 19.5 mm
13:00 16.3° 1020.9 hPa 3.5 m/s 19.5 mm 16.3° 1021.1 hPa 3.6 m/s 16.3° 1018.6 hPa 2.6 m/s 19.5 mm
16:00 16.3° 1020.1 hPa 3.3 m/s 19.7 mm 16.2° 1020.4 hPa 3.3 m/s 17.4° 1017.4 hPa 3.3 m/s 19.7 mm
19:00 16.0° 1019.5 hPa 3.1 m/s 20.7 mm 16.2° 1019.7 hPa 3.0 m/s 14.4° 1017.0 hPa 4.6 m/s 20.7 mm
22:00 14.1° 1019.8 hPa 3.9 m/s 20.8 mm 14.3° 1020.0 hPa 3.8 m/s 11.2° 1018.3 hPa 4.6 m/s 20.8 mm
 04:45     21:39    Daglengte: 16:54 Zondag 23 Jun
01:00 12.3° 1020.0 hPa 4.7 m/s 20.8 mm 12.5° 1020.2 hPa 4.6 m/s 10.4° 1018.4 hPa 5.6 m/s 20.8 mm
04:00 12.2° 1019.6 hPa 4.6 m/s 20.9 mm 12.4° 1019.8 hPa 4.6 m/s 10.4° 1017.9 hPa 4.8 m/s 20.9 mm
07:00 12.2° 1019.2 hPa 4.6 m/s 20.9 mm 12.3° 1019.3 hPa 4.6 m/s 11.0° 1018.6 hPa 4.8 m/s 20.9 mm
10:00 14.4° 1018.5 hPa 5.3 m/s 20.9 mm 14.3° 1018.5 hPa 5.3 m/s 15.0° 1018.9 hPa 5.9 m/s 20.9 mm
13:00 16.4° 1017.8 hPa 6.0 m/s 21.0 mm 16.3° 1017.7 hPa 6.0 m/s 17.3° 1019.0 hPa 5.9 m/s 21.0 mm
16:00 15.6° 1017.4 hPa 5.6 m/s 21.6 mm 15.4° 1017.3 hPa 5.5 m/s 17.6° 1018.3 hPa 6.7 m/s 21.6 mm
19:00 14.6° 1017.1 hPa 5.1 m/s 21.6 mm 14.5° 1016.9 hPa 5.0 m/s 15.6° 1018.9 hPa 6.4 m/s 21.6 mm
22:00 13.5° 1017.2 hPa 5.1 m/s 21.6 mm 13.7° 1017.0 hPa 5.0 m/s 11.3° 1020.4 hPa 5.8 m/s 21.6 mm
 04:45     21:39    Daglengte: 16:54 Maandag 24 Jun
01:00 12.7° 1017.3 hPa 5.1 m/s 21.6 mm 12.9° 1017.0 hPa 5.1 m/s 9.9° 1020.7 hPa 5.1 m/s 21.6 mm
07:00 12.6° 1017.2 hPa 5.7 m/s 21.6 mm 12.8° 1016.9 hPa 5.6 m/s 10.6° 1020.0 hPa 6.2 m/s 21.6 mm
13:00 16.7° 1017.7 hPa 5.3 m/s 21.6 mm 16.9° 1017.5 hPa 5.0 m/s 14.9° 1019.6 hPa 8.2 m/s 21.6 mm
19:00 15.0° 1018.4 hPa 5.8 m/s 21.7 mm 15.3° 1018.3 hPa 5.8 m/s 11.4° 1019.4 hPa 6.4 m/s 21.7 mm
 04:45     21:39    Daglengte: 16:54 Dinsdag 25 Jun
01:00 11.0° 1020.5 hPa 4.2 m/s 22.5 mm 11.2° 1020.6 hPa 4.1 m/s 9.3° 1018.8 hPa 5.4 m/s 22.5 mm
07:00 10.6° 1021.8 hPa 3.2 m/s 22.6 mm 10.7° 1022.2 hPa 3.0 m/s 9.6° 1017.5 hPa 5.5 m/s 22.6 mm
13:00 15.1° 1023.1 hPa 4.8 m/s 24.0 mm 15.4° 1023.7 hPa 4.7 m/s 11.3° 1016.8 hPa 6.3 m/s 24.0 mm
19:00 13.9° 1024.4 hPa 5.1 m/s 24.5 mm 14.0° 1025.1 hPa 5.1 m/s 12.2° 1016.2 hPa 5.6 m/s 24.5 mm
 04:46     21:39    Daglengte: 16:53 Woensdag 26 Jun
01:00 8.8° 1026.5 hPa 3.6 m/s 24.6 mm 8.9° 1027.4 hPa 3.4 m/s 7.9° 1016.6 hPa 5.9 m/s 24.6 mm
07:00 9.8° 1026.6 hPa 4.3 m/s 24.6 mm 9.9° 1027.5 hPa 4.1 m/s 8.2° 1016.5 hPa 6.1 m/s 24.6 mm
13:00 15.7° 1026.1 hPa 4.5 m/s 24.6 mm 15.9° 1027.1 hPa 4.4 m/s 13.1° 1015.6 hPa 6.2 m/s 24.6 mm
19:00 17.0° 1021.1 hPa 1.2 m/s 1.3 mm
 04:46     21:38    Daglengte: 16:52 Donderdag 27 Jun
01:00 10.3° 1020.9 hPa 0.7 m/s 0.5 mm
07:00 11.8° 1018.8 hPa 1.1 m/s 0.8 mm
13:00 17.9° 1017.4 hPa 2.2 m/s 0.6 mm
19:00 17.5° 1016.0 hPa 2.3 m/s 0.5 mm
 04:47     21:38    Daglengte: 16:51 Vrijdag 28 Jun
01:00 11.0° 1016.2 hPa 1.4 m/s 0.9 mm
07:00 11.9° 1015.2 hPa 1.8 m/s 0.8 mm
13:00 17.0° 1015.0 hPa 2.9 m/s 0.7 mm
19:00 16.8° 1014.7 hPa 3.2 m/s 1.2 mm
 04:48     21:38    Daglengte: 16:50 Zaterdag 29 Jun
01:00 10.2° 1015.9 hPa 1.8 m/s 0.3 mm
07:00 11.2° 1015.5 hPa 1.7 m/s 0.1 mm
13:00 16.9° 1014.8 hPa 2.7 m/s 1.2 mm
19:00 16.7° 1014.1 hPa 3.2 m/s 0.8 mm
 04:48     21:38    Daglengte: 16:50 Zondag 30 Jun
01:00 10.1° 1015.0 hPa 1.6 m/s 0.2 mm
07:00 11.5° 1014.7 hPa 1.7 m/s 0.1 mm
13:00 16.8° 1014.4 hPa 2.9 m/s 0.6 mm
19:00 16.6° 1014.1 hPa 2.9 m/s 0.8 mm
 04:49     21:37    Daglengte: 16:48 Maandag 01 Jul
01:00 10.2° 1015.1 hPa 1.8 m/s 0.3 mm
07:00 11.5° 1014.9 hPa 1.8 m/s 0.0 mm
13:00 17.3° 1014.5 hPa 2.9 m/s 0.5 mm
19:00 16.7° 1014.1 hPa 3.0 m/s 0.9 mm
FMI Hirlam - 7.5 km EWN WRFDA - 12 km DWD ICON - 7 km GFS - 25 km Basiskaart






























































Updatetijd (Europe/Amsterdam) Resolutie Lengte Stap
FMI Hirlam 01:15, 07:15, 13:15, 19:15 7.5 km 49h 1h
EWN WRFDA 22:15, 04:15, 10:15, 16:15 12 km 73h 1h
DWD ICON 23:45, 05:45, 11:45, 17:45 7 km 75h 1h
GFS 20:30, 02:30, 08:30, 14:30 25 km 237h 3h
30+ mm
25-30 mm
20-25 mm
15-20 mm
10-15 mm
6-10 mm
4-6 mm
2-4 mm
1-2 mm
0.5-1 mm
0.2-0.5 mm
0.1-0.2 mm
30+ mm
25-30 mm
20-25 mm
15-20 mm
10-15 mm
6-10 mm
4-6 mm
2-4 mm
1-2 mm
0.5-1 mm
0.2-0.5 mm
0.1-0.2 mm
Sneeuwval
Natte sneeuw
Hagel
Vorst
30+ mm
25-30 mm
20-25 mm
15-20 mm
10-15 mm
6-10 mm
4-6 mm
2-4 mm
1-2 mm
0.5-1 mm
0.2-0.5 mm
0.1-0.2 mm
Sneeuwval
Natte sneeuw
Hagel
Vorst
Onweer
50 mm
40 mm
30 mm
26 mm
22 mm
18 mm
14 mm
10 mm
9 mm
8 mm
7 mm
6 mm
5 mm
4.5 mm
4 mm
3.5 mm
3 mm
2.5 mm
2 mm
1.5 mm
1 mm
0.8 mm
0.6 mm
0.4 mm
0.2 mm
0.05 mm
35°
30°
25°
20°
15°
10°
-5°
-10°
-15°
-20°
-25°
-30°
-35°
33> m/s
29 m/s
25 m/s
21 m/s
17 m/s
14 m/s
11 m/s
8 m/s
5 m/s
3 m/s
0 m/s
2600 J/kg
2400 J/kg
2200 J/kg
2000 J/kg
1800 J/kg
1600 J/kg
1400 J/kg
1200 J/kg
1000 J/kg
800 J/kg
600 J/kg
400 J/kg
200 J/kg
70 dBZ
65 dBZ
60 dBZ
55 dBZ
50 dBZ
45 dBZ
40 dBZ
35 dBZ
30 dBZ
25 dBZ
20 dBZ
15 dBZ
10 dBZ
5 dBZ
-1 K
-2 K
-3 K
-4 K
-5 K
-6 K
-7 K
-8 K
-9 K
950 m²/s²
900 m²/s²
850 m²/s²
800 m²/s²
750 m²/s²
700 m²/s²
650 m²/s²
600 m²/s²
550 m²/s²
500 m²/s²
450 m²/s²
400 m²/s²
350 m²/s²
300 m²/s²
250 m²/s²
200 m²/s²
150 m²/s²
100 m²/s²
46 m/s
44 m/s
42 m/s
40 m/s
38 m/s
36 m/s
34 m/s
32 m/s
30 m/s
28 m/s
26 m/s
24 m/s
22 m/s
20 m/s
16 m/s
12 m/s
8 m/s
4 m/s
30 m/s
28 m/s
26 m/s
24 m/s
22 m/s
20 m/s
18 m/s
16 m/s
14 m/s
12 m/s
10 m/s
8 m/s
6 m/s
4 m/s
2 m/s
3.0
2.8
2.6
2.4
2.2
2.0
1.8
1.6
1.4
1.2
1.0
0.8
0.6
0.4
0.2
15
14
13
12
11
10
9
8
7
6
5
4
3
2
1
90%
80%
70%
60%
50%
40%
30%
20%
10%
42
40
38
36
34
32
30
28
26
24
22
20
18
16
14
12
90+ cm
80-90 cm
70-80 cm
60-70 cm
50-60 cm
40-50 cm
30-40 cm
20-30 cm
10-20 cm
1-10 cm
Sneeuwval
Natte sneeuw
Regen
>120 mm
115 mm
110 mm
105 mm
100 mm
95 mm
90 mm
85 mm
80 mm
75 mm
70 mm
65 mm
60 mm
55 mm
50 mm
45 mm
45 mm
40 mm
35 mm
30 mm
25 mm
20 mm
15 mm
10 mm
5 mm
0.1 mm
960 hPa
880 hPa
800 hPa
720 hPa
640 hPa
560 hPa
584 gpdm
568 gpdm
552 gpdm
536 gpdm
520 gpdm